{"data":{"norad_id":56826,"intl_designator":"2023-079D","name":"STARLINK-30114","alt_names":[],"object_type":"PAYLOAD","status":"ACTIVE","operator":null,"country":"US","launch_date":"2023-06-04","launch_site_code":"AFETR","launch_vehicle":null,"mission":null,"orbit_class":"UNKNOWN","rcs_meters":null,"size_class":null,"mass_kg":null,"dimensions":null,"purposes":["comms"],"wikipedia_slug":null,"has_3d_model":false,"image_url":null,"decayed_at":null,"tle_current":{"epoch":"2026-05-25T00:58:33.893184Z","epoch_age_seconds":74838,"freshness":"FRESH","line1":"1 56826U 23079D   26145.04067006  .00001313  00000+0  57244-4 0  9992","line2":"2 56826  43.0019  35.8047 0001147 262.2749  97.7972 15.27576562164871","mean_motion":15.27576562,"eccentricity":0.0001147,"inclination_deg":43.0019,"raan_deg":35.8047,"arg_perigee_deg":262.2749,"mean_anomaly_deg":97.7972,"bstar":5.7244e-5,"rev_number":16487,"period_min":94.26696087263,"perigee_km":482.27241144177,"apogee_km":483.84636989378,"semimajor_km":6861.1963906678,"source":"CELESTRAK","updated_at":"2026-05-25T13:38:18.162544Z"}}}